Address 0x0dc66f1dcb64d68f77895a44b023988b036b55da 5

 
Txn Hash Method
Block
From
To
Value [Txn Fee]
0x5fed9ce1edd1150bfaf6d7f46657f68c3edb6102fe7ba5818946ebaf92a4faf4Deposit207123812021-10-28 18:15:221 hr 44 mins ago0x0dc66f1dcb64d68f77895a44b023988b036b55daOUT 0x19793b454d3afc7b454f206ffe95ade26ca6912c0 MATIC0.00297375
0x7d67e2be517a25e5c79cd3616c3d14da6fff5575c56c52fa4d869e190f654f3fAdd_liquidity207123692021-10-28 18:14:581 hr 44 mins ago0x0dc66f1dcb64d68f77895a44b023988b036b55daOUT 0x445fe580ef8d70ff569ab36e80c647af338db3510 MATIC0.01611489
0x67749bd6c3a9060b7761e5452eb33eae6f1716818cb581d190b8f6370bfd26a6Swap Exact Token...207123582021-10-28 18:14:361 hr 45 mins ago0x0dc66f1dcb64d68f77895a44b023988b036b55daOUT QuickSwap: Router0 MATIC0.00269919
0xa596432568eee81b89b689f314d59f70b4413c5af426b0e4df791c8fc6ffd86aSwap Exact Token...207123532021-10-28 18:14:261 hr 45 mins ago0x0dc66f1dcb64d68f77895a44b023988b036b55daOUT QuickSwap: Router0 MATIC0.00494085
0x1c6b46fc9f30b7cfe601d5390ad83f7d338c4335d12d7211006ba320302e52b8Claim Rewards207123392021-10-28 18:13:581 hr 45 mins ago0x0dc66f1dcb64d68f77895a44b023988b036b55daOUT 0x357d51124f59836ded84c8a1730d72b749d8bc230 MATIC0.00294285
0xbec27aa83ce7a1f29a416158e3febfd95523327da609f0021ef246ba5d5e6127Claim_rewards207122962021-10-28 18:12:281 hr 47 mins ago0x0dc66f1dcb64d68f77895a44b023988b036b55daOUT 0x19793b454d3afc7b454f206ffe95ade26ca6912c0 MATIC0.00227634
0x532941e92418b26405104dbd16b426db22f5e881904393785f0a34f4c19edd92Claim_rewards207122952021-10-28 18:12:261 hr 47 mins ago0x0dc66f1dcb64d68f77895a44b023988b036b55daOUT 0x19793b454d3afc7b454f206ffe95ade26ca6912c0 MATIC0.00468384
0x0bd888ce727597f32f28d3d784df81c904279ea8b7bb53c23e3338a8b9a6be5aDeposit205715352021-10-24 19:57:134 days 2 mins ago0x0dc66f1dcb64d68f77895a44b023988b036b55daOUT 0x19793b454d3afc7b454f206ffe95ade26ca6912c0 MATIC0.00297375
0x876ed66b3d639c0f0e9a2861868a028d8cdf2ad2f01e353db09e71ebe18da655Add_liquidity205715302021-10-24 19:57:034 days 2 mins ago0x0dc66f1dcb64d68f77895a44b023988b036b55daOUT 0x445fe580ef8d70ff569ab36e80c647af338db3510 MATIC0.01262517
0x06c55fc255e95edacca7bcf49d5369be88ccd5aa5d32c4ab6d22ee7aed8c8600Swap Exact Token...205715222021-10-24 19:56:474 days 3 mins ago0x0dc66f1dcb64d68f77895a44b023988b036b55daOUT QuickSwap: Router0 MATIC0.00269835
0xab767cc4ea1acf7ceeec9a51885406d629e32169b72e6fe6299589c886d9b5f5Swap Exact Token...205715192021-10-24 19:56:374 days 3 mins ago0x0dc66f1dcb64d68f77895a44b023988b036b55daOUT QuickSwap: Router0 MATIC0.00305859
0xb924d4fb339e7ce48d0892d29ba29cdbadb377d73feaa5c4e2638abf714cbea0Claim Rewards205715152021-10-24 19:56:214 days 3 mins ago0x0dc66f1dcb64d68f77895a44b023988b036b55daOUT 0x357d51124f59836ded84c8a1730d72b749d8bc230 MATIC0.00294285
0x2a72af09bbb6456d69bf90b5ebc1f5cc9718b11ea4101af3ed369a254f521188Claim_rewards205715152021-10-24 19:56:214 days 3 mins ago0x0dc66f1dcb64d68f77895a44b023988b036b55daOUT 0x19793b454d3afc7b454f206ffe95ade26ca6912c0 MATIC0.00299484
0xfad74a6bf67ac95e3b070690d203dfa0ba1fd39ebf3825f791907ea5ab1c4b38Claim_rewards205715072021-10-24 19:55:494 days 4 mins ago0x0dc66f1dcb64d68f77895a44b023988b036b55daOUT 0x19793b454d3afc7b454f206ffe95ade26ca6912c0 MATIC0.00468384
0x8340f44860229ff8232595f2af0228bc59e0b0b5aafcaa50c3ec415dd180048fDeposit204477502021-10-21 10:16:477 days 9 hrs ago0x0dc66f1dcb64d68f77895a44b023988b036b55daOUT 0x19793b454d3afc7b454f206ffe95ade26ca6912c0 MATIC0.00297411
0xd3ac71e9a231ae359e7890f08ca19d2fd0219c130b5404b69ced836e8481507fAdd_liquidity204477412021-10-21 10:16:217 days 9 hrs ago0x0dc66f1dcb64d68f77895a44b023988b036b55daOUT 0x445fe580ef8d70ff569ab36e80c647af338db3510 MATIC0.01577298
0x8fc062730b65fe0fa5fa419879f1d54c64f4de4ec272d6d998c7aba9541780bdSwap Exact Token...204477332021-10-21 10:15:497 days 9 hrs ago0x0dc66f1dcb64d68f77895a44b023988b036b55daOUT QuickSwap: Router0 MATIC0.00269835
0x22c8a7390cc763e9383d77815a06602ad3834b3a15eb5c3b2fc36d555d984df4Swap Exact Token...204477312021-10-21 10:15:417 days 9 hrs ago0x0dc66f1dcb64d68f77895a44b023988b036b55daOUT QuickSwap: Router0 MATIC0.00357159
0x18e245622b43a0d2d0d043687a3a5b49b16225a6cbf395a602cf982353e9a3e9Claim_rewards204477102021-10-21 10:14:177 days 9 hrs ago0x0dc66f1dcb64d68f77895a44b023988b036b55daOUT 0x19793b454d3afc7b454f206ffe95ade26ca6912c0 MATIC0.00299484
0x6e0b14159a5ffb0bfe47bea6ffc8f7e6dc9132d41684f0e816bb5b0d9e5ff844Claim_rewards204477102021-10-21 10:14:177 days 9 hrs ago0x0dc66f1dcb64d68f77895a44b023988b036b55daOUT 0x19793b454d3afc7b454f206ffe95ade26ca6912c0 MATIC0.00468384
0x94234445ab4f320f502c6bf1a483e1b493d3c9d1592de0ed9f4febb0e664f661Deposit203061722021-10-17 8:29:0311 days 11 hrs ago0x0dc66f1dcb64d68f77895a44b023988b036b55daOUT 0x19793b454d3afc7b454f206ffe95ade26ca6912c0 MATIC0.00297375
0xef7dae7b2a3734e09549b244f06b7f4e1a647a8f22b51ea03a14cfa0cfa1673fAdd_liquidity203060652021-10-17 8:25:2511 days 11 hrs ago0x0dc66f1dcb64d68f77895a44b023988b036b55daOUT 0x445fe580ef8d70ff569ab36e80c647af338db3510 MATIC0.01576758
0xc0d101d17b5bfa775be1407be3fe4912caddb6058d8879757c8aae378f2daf71Swap Exact Token...203060532021-10-17 8:25:0111 days 11 hrs ago0x0dc66f1dcb64d68f77895a44b023988b036b55daOUT QuickSwap: Router0 MATIC0.00269919
0x13aa2e3887946d4db91c42a6379d926dddb753869edb244d507301f02b9c25d8Swap Exact Token...203060482021-10-17 8:24:5111 days 11 hrs ago0x0dc66f1dcb64d68f77895a44b023988b036b55daOUT QuickSwap: Router0 MATIC0.00494085
0x0453c0731379bdfaa8323fe34e436b92de12a7b79401d1a590eae7dcef13882dClaim Rewards203060302021-10-17 8:24:1111 days 11 hrs ago0x0dc66f1dcb64d68f77895a44b023988b036b55daOUT 0x357d51124f59836ded84c8a1730d72b749d8bc230 MATIC0.00294285
[ Download CSV Export 
Latest 2 internal transactions
Parent Txn Hash Block From To Value
0x25e7a67e5a5269c88edafe366b157ee184a2e34537b91fd069b7902ffa09f82c148832902021-05-24 18:31:48157 days 1 hr ago 0x00000000000000000000000000000000000010100x0dc66f1dcb64d68f77895a44b023988b036b55da0.15 MATIC
0x0be80504404e789900ac3821ef1de8b2cc45c135c875eadd75a270ab0a33c51e147176222021-05-20 10:01:47161 days 9 hrs ago QuickSwap: Router0x0dc66f1dcb64d68f77895a44b023988b036b55da20 MATIC
[ Download CSV Export 
Loading

Contract Name:
0 MATIC

Compiler Version
0

Optimization Enabled:
0 MATIC

Other Settings:
-NA-
Block Transaction Gas Used Reward
Age Block Fee Address BC Fee Address Voting Power Jailed Incoming
Block Uncle Number Difficulty Gas Used Reward
Loading
Loading
Make sure to use the "Vote Down" button for any spammy posts, and the "Vote Up" for interesting conversations.